When you browse on this site, cookies collect data to enhance your experience and personalize the content and advertising you see.
Visit our Privacy Policy to learn more. By continuing to use the site, you agree to this use of cookies and data.
  • In Romania
  • List of Countries
  • For 7 days
  • Water Temperature
  • Satellite Maps
  • Weather Map
  • Weather Widgets
  • user-avatar
    Login

    Hourly Weather Kranston

    Today, 22 May, Wednesday

    Time Temperature Precipitation Wind Pressure Humidity
    00:00 +11°C° 0 mm 4 mps 761 mmHg 55%
    01:00 +10°C° 0 mm 4 mps 761 mmHg 55%
    02:00 +10°C° 0 mm 4 mps 762 mmHg 57%
    03:00 +8°C° 0 mm 4 mps 762 mmHg 58%
    04:00 +8°C° 0 mm 4 mps 762 mmHg 59%
    05:00 +10°C° 0 mm 4 mps 763 mmHg 56%
    06:00 +11°C° 0 mm 4 mps 763 mmHg 53%
    07:00 +12°C° 0 mm 5 mps 764 mmHg 50%
    08:00 +14°C° 0 mm 4 mps 764 mmHg 46%
    09:00 +15°C° 0 mm 4 mps 765 mmHg 41%
    10:00 +18°C° 0 mm 4 mps 765 mmHg 37%
    11:00 +19°C° 0 mm 3 mps 765 mmHg 34%
    12:00 +21°C° 0 mm 3 mps 765 mmHg 32%
    13:00 +23°C° 0 mm 2 mps 765 mmHg 29%
    14:00 +23°C° 0 mm 2 mps 765 mmHg 31%
    15:00 +23°C° 0 mm 2 mps 765 mmHg 33%
    16:00 +23°C° 0 mm 2 mps 765 mmHg 34%
    17:00 +19°C° 0 mm 2 mps 765 mmHg 44%
    18:00 +16°C° 0 mm 3 mps 766 mmHg 53%
    19:00 +12°C° 0 mm 3 mps 766 mmHg 62%
    20:00 +11°C° 0 mm 3 mps 766 mmHg 65%
    21:00 +11°C° 0 mm 3 mps 767 mmHg 68%
    22:00 +10°C° 0 mm 2 mps 767 mmHg 71%
    23:00 +10°C° 0 mm 2 mps 767 mmHg 71%

    Tomorrow, 23 May, Thursday

    Time Temperature Precipitation Wind Pressure Humidity
    00:00 +10°C° 0 mm 2 mps 767 mmHg 71%
    01:00 +10°C° 0 mm 2 mps 767 mmHg 72%
    02:00 +10°C° 0 mm 2 mps 767 mmHg 71%
    03:00 +12°C° 0 mm 2 mps 767 mmHg 71%
    04:00 +12°C° 0 mm 2 mps 767 mmHg 70%
    05:00 +13°C° 0.1 mm 2 mps 766 mmHg 72%
    06:00 +12°C° 0.1 mm 3 mps 766 mmHg 74%
    07:00 +12°C° 0.1 mm 4 mps 766 mmHg 76%
    08:00 +12°C° 0.1 mm 4 mps 766 mmHg 78%
    09:00 +13°C° 0.1 mm 4 mps 765 mmHg 80%
    10:00 +13°C° 0.1 mm 4 mps 765 mmHg 82%
    11:00 +14°C° 0 mm 5 mps 764 mmHg 74%
    12:00 +16°C° 0 mm 6 mps 764 mmHg 67%
    13:00 +17°C° 0 mm 6 mps 763 mmHg 60%
    14:00 +17°C° 0 mm 6 mps 762 mmHg 61%
    15:00 +19°C° 0 mm 6 mps 761 mmHg 62%
    16:00 +19°C° 0 mm 6 mps 760 mmHg 63%
    17:00 +17°C° 0 mm 5 mps 759 mmHg 69%
    18:00 +16°C° 0 mm 5 mps 758 mmHg 75%
    19:00 +15°C° 0 mm 5 mps 757 mmHg 81%
    20:00 +16°C° 3.2 mm 5 mps 757 mmHg 86%
    21:00 +16°C° 3.2 mm 5 mps 756 mmHg 91%
    22:00 +18°C° 3.2 mm 4 mps 755 mmHg 96%
    23:00 +18°C° 0 mm 4 mps 755 mmHg 96%

    Day after tomorrow, 24 May, Friday

    Time Temperature Precipitation Wind Pressure Humidity
    00:00 +17°C° 0 mm 4 mps 754 mmHg 95%
    01:00 +17°C° 0 mm 3 mps 754 mmHg 94%
    02:00 +17°C° 0 mm 3 mps 754 mmHg 93%
    03:00 +16°C° 0 mm 3 mps 754 mmHg 92%
    04:00 +14°C° 0 mm 3 mps 754 mmHg 91%
    05:00 +15°C° 0 mm 4 mps 754 mmHg 85%
    06:00 +16°C° 0 mm 5 mps 754 mmHg 78%
    07:00 +17°C° 0 mm 6 mps 754 mmHg 72%
    08:00 +19°C° 0 mm 6 mps 754 mmHg 66%
    09:00 +20°C° 0 mm 6 mps 754 mmHg 60%
    10:00 +22°C° 0 mm 7 mps 754 mmHg 53%
    11:00 +22°C° 0 mm 6 mps 755 mmHg 54%
    12:00 +22°C° 0 mm 6 mps 755 mmHg 54%
    13:00 +22°C° 0 mm 6 mps 756 mmHg 54%
    14:00 +21°C° 0 mm 6 mps 757 mmHg 55%
    15:00 +21°C° 0 mm 5 mps 757 mmHg 56%
    16:00 +20°C° 0 mm 5 mps 758 mmHg 57%
    17:00 +19°C° 0 mm 4 mps 759 mmHg 63%
    18:00 +17°C° 0 mm 3 mps 760 mmHg 68%
    19:00 +15°C° 0 mm 2 mps 761 mmHg 74%
    20:00 +14°C° 0 mm 2 mps 762 mmHg 77%
    21:00 +13°C° 0 mm 2 mps 762 mmHg 80%
    22:00 +12°C° 0 mm 1 mps 763 mmHg 83%
    23:00 +12°C° 0 mm 1 mps 763 mmHg 85%

    25 May, Saturday

    Time Temperature Precipitation Wind Pressure Humidity
    00:00 +11°C° 0 mm 1 mps 763 mmHg 86%
    01:00 +11°C° 0 mm 1 mps 764 mmHg 88%
    02:00 +10°C° 0 mm 1 mps 764 mmHg 88%
    03:00 +10°C° 0 mm 1 mps 764 mmHg 89%
    04:00 +9°C° 0 mm 0 mps 764 mmHg 89%
    05:00 +11°C° 0 mm 0 mps 765 mmHg 80%
    06:00 +15°C° 0 mm 1 mps 765 mmHg 71%
    07:00 +18°C° 0 mm 1 mps 765 mmHg 62%
    08:00 +20°C° 0 mm 1 mps 765 mmHg 55%
    09:00 +22°C° 0 mm 1 mps 765 mmHg 49%
    10:00 +23°C° 0 mm 2 mps 765 mmHg 42%
    11:00 +22°C° 0 mm 3 mps 765 mmHg 42%
    12:00 +23°C° 0 mm 4 mps 764 mmHg 42%
    13:00 +23°C° 0 mm 5 mps 764 mmHg 42%
    14:00 +21°C° 0 mm 5 mps 763 mmHg 45%
    15:00 +20°C° 0 mm 5 mps 763 mmHg 49%
    16:00 +19°C° 0 mm 5 mps 762 mmHg 52%
    17:00 +16°C° 0 mm 5 mps 762 mmHg 56%
    18:00 +15°C° 0 mm 4 mps 762 mmHg 60%
    19:00 +14°C° 0 mm 4 mps 762 mmHg 64%
    20:00 +14°C° 0.2 mm 4 mps 762 mmHg 71%
    21:00 +13°C° 0.2 mm 5 mps 762 mmHg 77%
    22:00 +13°C° 0.2 mm 5 mps 761 mmHg 83%
    23:00 +13°C° 0.5 mm 5 mps 760 mmHg 86%

    26 May, Sunday

    Time Temperature Precipitation Wind Pressure Humidity
    00:00 +13°C° 0.5 mm 5 mps 760 mmHg 89%
    01:00 +13°C° 0.5 mm 5 mps 759 mmHg 92%
    02:00 +14°C° 0 mm 5 mps 759 mmHg 93%
    03:00 +14°C° 0 mm 4 mps 758 mmHg 94%
    04:00 +15°C° 0 mm 4 mps 758 mmHg 94%
    05:00 +17°C° 0 mm 4 mps 758 mmHg 92%
    06:00 +18°C° 0 mm 3 mps 758 mmHg 89%
    07:00 +19°C° 0 mm 3 mps 758 mmHg 86%
    08:00 +22°C° 0 mm 3 mps 757 mmHg 76%
    09:00 +26°C° 0 mm 3 mps 757 mmHg 65%
    10:00 +29°C° 0 mm 2 mps 757 mmHg 55%
    11:00 +30°C° 0 mm 3 mps 757 mmHg 49%
    12:00 +31°C° 0 mm 3 mps 756 mmHg 44%
    13:00 +33°C° 0 mm 4 mps 756 mmHg 38%
    14:00 +33°C° 0 mm 4 mps 756 mmHg 40%
    15:00 +31°C° 0 mm 3 mps 755 mmHg 42%
    16:00 +31°C° 0 mm 3 mps 755 mmHg 44%
    17:00 +29°C° 0 mm 3 mps 755 mmHg 53%
    18:00 +26°C° 0 mm 2 mps 755 mmHg 63%
    19:00 +24°C° 0 mm 2 mps 755 mmHg 72%
    20:00 +23°C° 0 mm 2 mps 755 mmHg 75%
    21:00 +22°C° 0 mm 1 mps 755 mmHg 78%
    22:00 +21°C° 0 mm 1 mps 755 mmHg 81%
    23:00 +21°C° 0.1 mm 1 mps 755 mmHg 80%

    27 May, Monday

    Time Temperature Precipitation Wind Pressure Humidity
    00:00 +21°C° 0.1 mm 1 mps 755 mmHg 80%
    01:00 +20°C° 0.1 mm 1 mps 755 mmHg 80%
    02:00 +19°C° 0 mm 1 mps 754 mmHg 81%
    03:00 +19°C° 0 mm 1 mps 754 mmHg 83%
    04:00 +18°C° 0 mm 1 mps 754 mmHg 85%
    05:00 +19°C° 0 mm 1 mps 754 mmHg 79%
    06:00 +21°C° 0 mm 1 mps 754 mmHg 73%
    07:00 +22°C° 0 mm 1 mps 754 mmHg 67%
    08:00 +24°C° 0 mm 1 mps 753 mmHg 59%
    09:00 +26°C° 0 mm 2 mps 753 mmHg 50%
    10:00 +28°C° 0 mm 3 mps 753 mmHg 41%
    11:00 +28°C° 0 mm 4 mps 752 mmHg 39%
    12:00 +29°C° 0 mm 4 mps 752 mmHg 37%
    13:00 +29°C° 0 mm 5 mps 751 mmHg 35%
    14:00 +27°C° 0.1 mm 6 mps 752 mmHg 44%
    15:00 +23°C° 0.1 mm 7 mps 752 mmHg 53%
    16:00 +21°C° 0.1 mm 8 mps 752 mmHg 61%
    17:00 +18°C° 0 mm 7 mps 753 mmHg 60%
    18:00 +17°C° 0 mm 5 mps 755 mmHg 59%
    19:00 +15°C° 0 mm 4 mps 756 mmHg 58%
    20:00 +14°C° 0 mm 3 mps 756 mmHg 58%
    21:00 +13°C° 0 mm 3 mps 757 mmHg 58%
    22:00 +12°C° 0 mm 2 mps 758 mmHg 58%
    23:00 +11°C° 0 mm 3 mps 758 mmHg 59%
    Show more